Regional Weather Roundup
Issued by NWS

Home | Current Version | Previous Version | Graphics & Text | Print | Product List | Glossary Off
Versions: 1 2 3 4 5 6 7 8 9 10 11 12 13 14 15 16 17 18 19 20 21 22 23 24 25 26 27 28 29 30 31 32 33 34 35 36 37 38 39 40 41 42 43 44 45 46 47 48 49 50

000
ASUS43 KDMX 220406
RWRIA

WEATHER ROUNDUP FOR IOWA
NATIONAL WEATHER SERVICE DES MOINES IA
1000 PM CST TUE FEB 21 2017

NOTE: "FAIR" INDICATES FEW OR NO CLOUDS BELOW 12,000 FEET WITH NO
SIGNIFICANT WEATHER AND/OR OBSTRUCTIONS TO VISIBILITY.

* - THESE STATIONS ARE NOT NWS STATIONS...THUS NOT UNDER NWS
QUALITY CONTROL.  THEY ALSO DO NOT REPORT WEATHER SUCH
AS PRECIPITATION OR FOG.

IAZ001>003-012>014-020>022-031>034-043>046-220500-
   NORTHWEST IOWA

CITY           SKY/WX    TMP DP  RH WIND       PRES   REMARKS
CARROLL *      CLEAR     52  41  66 SW20      29.76S
CHEROKEE *     CLEAR     48  38  69 S6        29.72F
DENISON *      CLEAR     52  37  58 S10G16    29.74F
LE MARS *      CLEAR     50  37  62 S6        29.71F
ORANGE CITY *  CLEAR     48  37  66 S7        29.70F
SHELDON *      CLEAR     52  39  62 S12       29.68F
SIOUX CITY     CLEAR     47  38  71 E8        29.71F
SPENCER        CLEAR     46  39  76 SW6       29.71F
STORM LAKE *   CLEAR     45  37  76 S8        29.74S
$$

IAZ055>058-069>071-079>083-090>094-220500-
   SOUTHWEST IOWA

CITY           SKY/WX    TMP DP  RH WIND       PRES   REMARKS
ATLANTIC *     CLEAR     48  39  71 S9        29.80S
CLARINDA *     CLEAR     46  37  71 S7        29.84F
COUNCIL BLFS * CLEAR     59  36  41 S12       29.78F
CRESTON *      CLEAR     46  36  66 S10       29.84F
HARLAN  *      CLEAR     46  39  76 S7        29.81F
LAMONI         CLEAR     50  33  52 S9        29.85S
RED OAK *      CLEAR     50  39  66 S9        29.81S
SHENANDOAH *   CLEAR     52  37  58 S6        29.82S
$$

IAZ047>049-059>061-072>074-084-220500-
   CENTRAL IOWA

CITY           SKY/WX    TMP DP  RH WIND       PRES   REMARKS
AMES           CLEAR     50  38  63 SW10      29.78F
ANKENY *       CLEAR     55  34  44 S7G13     29.81F
BOONE *        CLEAR     55  36  47 S12G20    29.77F
CHARITON *     CLEAR     48  34  57 S10       29.84S
DES MOINES     CLEAR     50  34  54 S10       29.81F
GRINNELL*      CLEAR     50  36  59 S9        29.84R
KNOXVILLE *    PTCLDY    52  32  46 S8        29.82S
MARSHALLTOWN   CLEAR     47  36  65 S8        29.80S
NEWTON *       PTCLDY    54  36  50 S13       29.81S
PELLA *        PTCLDY    51  33  49 S6        29.85R
PERRY *          N/A     44  39  83 S8        29.79S
$$

IAZ004>006-015-016-023>025-035-036-220500-
   NORTH CENTRAL IOWA

CITY           SKY/WX    TMP DP  RH WIND       PRES   REMARKS
ALGONA *       CLEAR     48  41  76 S13       29.73F
CLARION *      CLEAR     43  43 100 S9        29.75F
ESTHERVILLE    CLEAR     44  40  85 SW12      29.71S
FORT DODGE *   CLEAR     48  37  66 S9        29.76S
MASON CITY     CLEAR     43  38  82 S9        29.76F
FOREST CITY *    N/A     43  39  87 S7        29.74S
WEBSTER CITY * CLEAR     48  39  71 S10       29.74F
IOWA FALLS *     N/A     46  37  73 S12       29.79S
$$

IAZ007>011-017>019-026>030-037>042-050>054-066-220500-
   NORTHEAST IOWA

CITY           SKY/WX    TMP DP  RH WIND       PRES   REMARKS
CEDAR RAPIDS   CLEAR     48  39  71 SE5       29.83R
CHARLES CITY * CLEAR     45  43  93 S9        29.78F
CLINTON *      LGT RAIN  48  44  86 S7        29.86F FOG
DECORAH *      CLEAR     50  39  66 S9G17     29.77F
DUBUQUE        CLEAR     44  37  76 S7        29.84S
MONTICELLO *   CLEAR     39  36  87 SE3       29.84S
OELWEIN *      CLEAR     45  39  81 S9        29.81S
WATERLOO       CLEAR     46  37  71 S8        29.80F
$$

IAZ064-065-067-068-078-220500-
   EAST CENTRAL IOWA

CITY           SKY/WX    TMP DP  RH WIND       PRES   REMARKS
DAVENPORT      CLEAR     49  40  71 S5        29.85F
IOWA CITY      CLEAR     47  38  71 CALM      29.85F
MUSCATINE *    CLEAR     45  39  81 CALM      29.85F
QUAD CITIES    CLEAR     49  43  80 S3        29.84F
$$

IAZ062-063-075>077-085>089-095>099-220500-
   SOUTHEAST IOWA

CITY           SKY/WX    TMP DP  RH WIND       PRES   REMARKS
BURLINGTON     CLEAR     53  53 100 S5        29.85F FOG
FAIRFIELD *    CLEAR     54  48  82 S9        29.84F
KEOKUK *       CLEAR     57  55  94 CALM      29.85F
OTTUMWA        CLEAR     48  32  53 S8        29.83F
WASHINGTON *   CLEAR     50  46  87 S8        29.85F
$$

ABBREVIATIONS USED IN REMARKS
   TC - TEMPERATURES IN CELSIUS
  WCI - WIND CHILL INDEX
   HX - HEAT INDEX
  VSB - VISIBILITY
$$




USA.gov is the U.S. government's official web portal to all federal, state and local government web resources and services.